Weather History for Anniston, AL

Change the Weather History Date:

Friday, April 5, 2013

  Actual Average Record
Temperature  
Mean Temperature 55 °F 59 °F  
Max Temperature 67 °F 72 °F 88 °F (1967)
Min Temperature 42 °F 47 °F 30 °F (1903)
Degree Days  
Heating Degree Days 10    
Month to date heating degree days 53  
Since 1 July heating degree days 2558  
Growing Degree Days 4 (Base 50)    
Moisture  
Dew Point 41 °F    
Average Humidity 64    
Maximum Humidity 96    
Minimum Humidity 32    
Precipitation  
Precipitation 0.04 in 0.14 in 1.79 in (1982)
Month to date precipitation 1.01 0.71  
Year to date precipitation 18.96 15.27  
Sea Level Pressure  
Sea Level Pressure 30.04 in    
Wind  
Wind Speed 5 mph (NNE)    
Max Wind Speed 16 mph    
Max Gust Speed 21 mph    
Visibility 9 miles    
Events Rain    
T = Trace of Precipitation, MM = Missing Value Source: NWS Daily Summary

Daily Weather History Graph

Daily Weather History Graph

Search for Another Location

Airport:

Trip Planner

Search our weather history database for the weather conditions in past years. The results will help you decide how hot, cold, wet, or windy it might be!

Date:

Astronomy

Apr. 05, 2013 Rise Set
Actual Time 6:25 AM CDT 7:07 PM CDT
Civil Twilight 6:00 AM CDT 7:32 PM CDT
Nautical Twilight 5:30 AM CDT 8:02 PM CDT
Astronomical Twilight 5:00 AM CDT 8:32 PM CDT
Moon 3:18 AM CDT (4/5) 2:42 PM CDT (4/5)
Length of Visible Light 13h 32m
Length of Day
12h 41m
Waning Crescent, 23% of the Moon is Illuminated
Apr 5
Waning Crescent
Apr 10
New
Apr 18
First Quarter
Apr 25
Full
May 2
Last Quarter

Hourly Weather History & Observations

Time (CDT) Temp. Windchill Dew Point Humidity Pressure Visibility Wind Dir Wind Speed Gust Speed Precip Events Conditions
12:53 AM 43.0 °F 38.8 °F 39.9 °F 89% 30.00 in 10.0 mi ENE 6.9 mph - N/A   Overcast
1:53 AM 44.1 °F 40.8 °F 39.9 °F 85% 30.00 in 10.0 mi NE 5.8 mph - N/A   Overcast
2:19 AM 42.8 °F 41.1 °F 39.2 °F 87% 29.97 in 10.0 mi NE 3.5 mph - N/A   Overcast
2:22 AM 44.6 °F - 39.2 °F 81% 29.97 in 10.0 mi Calm Calm - N/A   Overcast
2:53 AM 43.0 °F 40.3 °F 39.9 °F 89% 30.00 in 10.0 mi ENE 4.6 mph - N/A   Overcast
3:53 AM 44.1 °F 40.8 °F 39.9 °F 85% 30.01 in 10.0 mi North 5.8 mph - N/A   Overcast
4:22 AM 44.6 °F - 39.2 °F 81% 30.00 in 10.0 mi Calm Calm - N/A   Overcast
4:53 AM 43.0 °F 40.3 °F 39.9 °F 89% 30.03 in 7.0 mi Variable 4.6 mph - 0.00 in Rain Light Rain
5:11 AM 42.8 °F - 41.0 °F 93% 30.01 in 8.0 mi Calm Calm - 0.02 in Rain Light Rain
5:41 AM 42.8 °F - 41.0 °F 93% 30.02 in 4.0 mi Calm Calm - 0.03 in Rain Light Rain
5:53 AM 43.0 °F 41.3 °F 41.0 °F 93% 30.04 in 5.0 mi NE 3.5 mph - 0.03 in Rain Light Rain
6:10 AM 42.8 °F - 41.0 °F 93% 30.03 in 10.0 mi Calm Calm - 0.00 in   Overcast
6:36 AM 44.6 °F - 41.0 °F 87% 30.03 in 10.0 mi Calm Calm - 0.01 in   Overcast
6:53 AM 44.1 °F 42.5 °F 41.0 °F 89% 30.05 in 10.0 mi North 3.5 mph - 0.01 in   Overcast
7:53 AM 45.0 °F - 42.1 °F 90% 30.06 in 7.0 mi Calm Calm - 0.00 in   Overcast
8:53 AM 46.9 °F - 43.0 °F 86% 30.07 in 9.0 mi NNE 4.6 mph - N/A   Overcast
9:01 AM 46.4 °F 45.2 °F 42.8 °F 87% 30.05 in 9.0 mi Variable 3.5 mph - N/A   Overcast
9:40 AM 50.0 °F - 44.6 °F 82% 30.06 in 10.0 mi North 11.5 mph - N/A   Overcast
9:53 AM 51.1 °F - 45.0 °F 80% 30.08 in 10.0 mi North 10.4 mph 17.3 mph N/A   Overcast
10:53 AM 55.0 °F - 45.0 °F 69% 30.09 in 10.0 mi Variable 6.9 mph - N/A   Mostly Cloudy
11:27 AM 55.4 °F - 42.8 °F 63% 30.07 in 10.0 mi NNE 13.8 mph 18.4 mph N/A   Overcast
11:53 AM 59.0 °F - 44.1 °F 58% 30.08 in 10.0 mi NNE 10.4 mph 17.3 mph N/A   Scattered Clouds
12:53 PM 62.1 °F - 42.1 °F 48% 30.06 in 10.0 mi North 8.1 mph 17.3 mph N/A   Mostly Cloudy
1:53 PM 63.0 °F - 41.0 °F 45% 30.04 in 10.0 mi North 12.7 mph 18.4 mph N/A   Clear
2:53 PM 64.9 °F - 39.0 °F 39% 30.03 in 10.0 mi NW 8.1 mph - N/A   Clear
3:53 PM 66.9 °F - 36.0 °F 32% 30.01 in 10.0 mi NNE 8.1 mph - N/A   Clear
4:53 PM 66.0 °F - 36.0 °F 33% 30.02 in 10.0 mi North 6.9 mph 19.6 mph N/A   Clear
5:53 PM 64.9 °F - 35.1 °F 33% 30.04 in 10.0 mi North 10.4 mph - N/A   Clear
6:53 PM 63.0 °F - 34.0 °F 34% 30.05 in 10.0 mi North 3.5 mph - N/A   Clear
7:53 PM 57.0 °F - 37.9 °F 49% 30.07 in 10.0 mi Calm Calm - N/A   Clear
8:53 PM 48.0 °F - 43.0 °F 83% 30.09 in 10.0 mi Calm Calm - N/A   Clear
9:53 PM 46.0 °F - 42.1 °F 86% 30.11 in 10.0 mi Calm Calm - N/A   Clear
10:53 PM 44.1 °F - 41.0 °F 89% 30.12 in 10.0 mi Calm Calm - N/A   Clear
11:53 PM 44.1 °F - 41.0 °F 89% 30.13 in 10.0 mi Calm Calm - N/A   Clear